User: anonymous   Login
Location: Unspecified
(0.0000°N, 0.0000°E)
Time: 03:36:13
(UTC+00:00)
Language:

USA 119 - Orbit

View from above orbital plane
View from above orbital plane
View from above satellite
View from above satellite

Ground track
Ground track

The orbit data is extracted from the following two-line orbital elements,

1 23893U 96029A   17091.64310766 0.00000000  00000-0  00000-0 0    05
2 23893  63.3559 284.9267 3385888 263.6384  57.5135  5.52850105    08
Epoch (UTC): 01 April 2017 15:26:04
Eccentricity: 0.3385888
inclination: 63.3559°
perigee height: 2557 km
apogee height: 11706 km
right ascension of ascending node: 284.9267°
argument of perigee: 263.6384°
revolutions per day: 5.52850105
mean anomaly at epoch: 57.5135°
orbit number at epoch: 0

The dashed part of the orbit path shows where the satellite is in the earth's shadow,  

DLR